Погода в Войвоже

Россия / Республика Коми     62°53′39″N   54°58′03″E
темп.,
°C
ветер,
м/с
пор.,
м/с
влажн.,
%
обл.,
%
осадки,
мм/ч
давл.,
гПа
погр.,
м
15 мая, сб
сб1500:00+15юз2572100 0.0 101492
03:00+15юз2880100 0.0 1013226
06:00+18зюз36635 0.0 1013419
09:00+21з4736100 0.0 10131702
12:00+21з4837100 0.0 10131827
15:00+23з473173 0.0 10132602
18:00+20з3841100 0.0 1012624
21:00+17з2458100 0.0 1013124
16 мая, вс
вс1600:00+13св117877 0.0 101416
03:00+11всв238781 0.0 101481
06:00+15юв3569100 0.0 1013366
09:00+15юв257177 0.1 1013464
12:00+19ююз256682 1.1 1010532
15:00+22зюз274690 2.1 1008354
18:00+22зсз25443 0.0 1007191
21:00+17зюз2567100 0.2 1008156
17 мая, пн
пн1700:00+14ююв129091 0.8 100944
03:00+14юз31086100 0.8 1009319
06:00+16зюз497578 0.0 1009621
09:00+19зюз585899 0.5 10101525
12:00+18з486780 1.4 10111166
15:00+19з475737 2.3 10111419
18:00+18з366119 0.8 1012705
21:00+14зюз227820 0.9 101339
18 мая, вт
вт1800:00+12зюз278852 0.1 1014163
03:00+11з2594100 0.1 1015153
06:00+12ссз2488100 0.1 1016271
09:00+13сз238079 0.2 1017464
12:00+17зсз225898 0.1 10171378
15:00+17с226164 0.3 1019941
18:00+17вюв116051 0.1 1018735
21:00+13юв1178100 0.1 101916
19 мая, ср
ср1900:00+11ююв268658 0.0 1019112
03:00+11ююв289357 0.0 1019162
06:00+16ю376651 0.0 1018326
09:00+22ю464484 0.0 1017764
12:00+26ю573853 0.0 10151372
15:00+28ююз49305 0.0 10133124
18:00+26ююз38304 0.0 1012312
21:00+20ю4134612 0.0 1012281